SCP
2 2 3 3 4 4 4 4 5 5 5 6 6 6 5 5 4 4 3 2 2 2 2 2 2 1 1 1 1 1 1 0 0 0 0 0 0 0 0 0 0 0 0
2 2 2 3 4 5 5 5 5 6 7 8 8 7 6 6 5 5 4 3 2 2 2 2 2 1 1 1 1 1 1 1 0 0 0 0 0 0 0 0 0 0 0
1 2 2 3 4 5 6 6 5 6 8 9 9 8 8 8 7 6 5 4 3 3 3 2 2 1 1 1 1 1 1 1 0 0 0 0 0 0 0 0 0 0 0
1 1 2 2 3 4 6 6 6 6 8 9 9 9 9 8 8 6 5 4 3 3 3 2 2 1 1 1 1 1 1 1 1 0 0 0 0 0 0 0 0 0 0
1 1 1 1 2 3 4 5 6 7 8 8 9 9 8 8 7 6 5 5 4 4 4 3 3 2 1 1 1 1 1 1 1 0 0 0 0 0 0 0 0 0 0
1 1 1 1 1 2 2 3 5 6 6 7 8 8 8 7 6 5 5 5 5 4 4 4 3 3 2 1 1 1 1 1 1 1 0 0 0 0 0 0 0 0 0
1 1 1 1 1 1 2 2 3 3 4 4 6 7 7 6 5 4 4 4 4 3 3 3 3 3 2 2 1 1 1 1 1 0 1 1 0 0 0 0 0 0 0
1 1 1 1 1 1 1 1 2 2 2 3 4 5 5 5 4 3 3 3 2 2 2 2 2 2 2 2 1 1 1 1 1 0 0 0 0 0 0 0 0 0 0
1 1 1 1 1 1 1 1 2 2 2 2 3 3 3 3 2 2 2 2 2 2 2 2 2 2 2 1 1 0 0 1 0 0 0 0 0 0 0 0 0 0 0
1 1 1 1 1 1 1 2 2 2 1 1 1 1 1 1 1 1 1 1 1 1 1 1 1 2 1 1 0 0 0 0 0 0 0 0 0 0 0 0 0 0 0
0 1 1 1 1 1 1 1 1 1 1 0 0 0 0 0 0 1 1 1 1 1 1 1 1 1 1 0 0 0 0 0 0 0 0 0 0 0 0 0 0 0 0
0 0 0 0 0 0 1 0 0 0 0 0 0 0 0 0 0 0 0 0 0 0 1 1 0 0 0 0 0 0 0 0 0 0 0 0 0 0 0 0 0 0 0
0 0 0 0 0 0 0 0 0 0 0 0 0 0 0 0 0 0 0 0 0 0 0 0 0 0 0 0 0 0 0 0 0 0 0 0 0 0 1 0 0 0 0
0 0 0 0 0 0 0 0 0 0 0 0 0 0 0 0 0 0 0 0 0 0 0 0 0 0 0 0 0 0 0 0 0 0 0 0 0 0 0 0 0 0 0
0 0 0 0 0 0 0 0 0 0 0 0 0 0 0 0 0 0 0 0 0 0 0 0 1 1 1 0 0 0 0 0 0 0 0 0 0 0 0 0 0 0 0
0 0 0 0 0 0 0 0 0 0 0 0 0 0 0 0 0 0 0 0 0 0 1 1 1 1 1 0 0 0 0 0 0 0 0 0 0 0 0 0 0 0 0
0 0 0 0 0 0 0 0 0 0 0 0 0 0 0 0 0 0 0 0 0 0 1 1 1 1 0 0 0 0 0 0 0 0 0 0 0 0 0 0 0 0 0
0 0 0 0 0 0 0 0 0 0 0 0 0 0 0 0 0 0 0 0 0 0 0 1 1 0 0 0 0 0 0 0 0 0 0 0 0 0 0 0 0 0 0
0 0 0 0 0 0 0 0 0 0 0 0 0 0 0 0 0 0 0 0 0 0 0 0 0 0 0 0 0 0 0 0 0 0 0 0 0 0 0 0 0 0 0
0 0 0 0 0 0 0 0 0 0 0 0 0 0 0 0 0 0 0 0 0 0 0 0 0 0 0 0 0 0 0 0 0 0 0 0 0 0 0 0 0 0 0
0 0 0 0 0 0 0 0 0 0 0 0 0 0 0 0 0 0 0 0 0 0 0 0 0 0 0 0 0 0 0 0 0 0 0 0 0 0 0 0 0 0 0
0 0 0 0 0 0 0 0 0 0 0 0 0 0 0 0 0 0 0 0 0 0 0 0 0 0 0 0 0 0 0 0 0 0 0 0 0 0 0 0 0 0 0
0 0 0 0 0 0 0 0 0 0 0 0 0 0 0 0 0 0 0 0 0 0 0 0 0 0 0 0 0 0 0 0 0 0 0 0 0 0 0 0 0 0 0
0 0 0 0 0 0 0 0 0 0 0 0 0 0 0 0 0 0 0 0 0 0 0 0 0 0 0 0 0 0 0 0 0 0 0 0 0 0 0 0 0 0 0
0 0 0 0 0 0 0 0 0 0 0 0 0 0 0 0 0 0 0 0 0 0 0 0 0 0 0 0 0 0 0 0 0 0 0 0 0 0 0 0 0 0 0
0 0 0 0 0 0 0 0 0 0 0 0 0 0 0 0 0 0 0 0 0 0 0 0 0 0 0 0 0 0 0 0 0 0 0 0 0 0 0 0 0 0 0
Wind_Speed
9 9 10 9 8 6 6 5 4 7 5 5 5 5 5 4 4 4 5 4 2 3 5 3 3 2 2 1 1 0 1 0 1 1 2 1 2 3 3 2 2 2 4
10 10 11 12 12 11 9 8 5 6 7 6 6 6 6 4 4 4 4 5 3 3 4 4 3 2 1 1 1 1 0 1 1 1 1 2 3 3 3 3 2 2 2
11 12 11 11 12 12 12 11 9 6 6 8 6 5 5 4 4 4 3 3 3 3 3 3 3 2 3 3 3 3 3 3 2 2 2 2 3 2 3 4 4 4 2
11 10 10 11 12 12 12 13 12 10 5 5 9 9 7 6 5 5 4 3 3 2 3 2 2 2 2 3 5 5 4 4 4 3 2 3 3 2 2 2 2 4 4
12 12 11 10 11 11 11 11 12 10 8 2 6 8 6 5 4 5 6 5 3 2 2 2 1 2 2 3 5 4 4 4 5 4 3 3 3 3 3 2 3 2 2
13 12 12 11 10 10 9 10 10 10 10 7 3 5 7 8 7 6 6 4 3 2 1 2 1 2 2 3 4 5 5 5 5 4 4 3 3 3 3 3 3 3 3
14 13 13 12 10 10 10 9 9 9 9 9 7 5 5 6 6 5 5 5 3 2 1 1 1 2 2 2 3 3 4 4 5 4 3 3 3 2 2 2 3 3 3
14 13 12 11 10 9 9 8 8 8 8 8 7 7 7 5 4 4 4 4 3 2 1 1 2 2 2 2 2 2 3 3 3 4 4 3 3 2 3 3 3 2 3
15 14 12 11 10 9 9 8 8 8 7 8 7 7 7 6 5 4 4 3 2 1 1 2 3 3 3 3 2 2 3 2 1 0 1 2 2 2 2 2 3 3 3
14 13 11 10 9 9 9 9 8 8 7 6 6 6 5 5 4 3 3 2 2 0 1 3 4 4 4 4 2 1 1 1 1 1 1 2 1 2 2 2 3 3 4
13 12 10 10 10 10 10 10 8 8 7 6 6 6 5 4 3 2 2 1 1 3 4 5 5 5 6 5 4 2 2 2 2 3 3 3 3 2 2 2 2 3 3
12 11 11 10 10 10 10 10 9 8 7 6 6 5 4 3 3 2 2 2 4 5 5 5 5 3 3 2 4 3 2 3 2 2 2 3 2 3 2 2 3 3 4
12 11 10 10 9 9 9 9 9 8 6 6 5 5 4 2 2 3 3 3 4 4 4 3 1 1 2 1 1 2 3 3 3 2 2 2 1 1 1 2 2 2 3
8 9 8 8 7 7 7 8 7 7 6 5 4 4 3 2 2 3 3 3 3 3 3 3 2 2 2 3 2 1 1 2 2 2 2 1 1 2 2 1 0 1 1
8 7 7 6 6 5 5 5 5 5 6 6 6 6 5 4 4 4 5 5 6 6 5 5 6 6 5 6 7 6 4 4 3 2 2 2 5 6 3 1 1 2 1
9 8 7 6 6 6 6 6 6 5 5 6 6 6 6 6 6 6 6 6 7 7 7 7 7 8 8 10 10 7 5 5 4 4 2 2 5 6 6 4 3 1 1
8 8 7 6 6 6 6 6 6 6 6 7 7 7 7 7 7 7 7 6 7 7 7 8 7 8 9 13 13 11 6 5 4 4 3 1 2 4 3 6 6 4 4
8 8 7 6 6 6 5 6 6 7 7 7 7 7 7 7 7 7 7 7 6 6 6 7 6 6 9 15 14 13 6 4 4 4 3 3 2 3 3 1 2 3 4
6 6 7 7 7 6 6 6 7 7 7 6 6 7 7 7 7 6 6 6 5 5 5 5 6 6 8 14 15 13 5 4 4 3 3 5 4 7 7 4 2 1 1
5 6 6 7 6 6 6 6 7 7 6 6 6 6 6 6 7 6 5 4 4 4 4 4 5 5 5 11 15 14 5 5 4 3 4 8 6 6 7 5 4 3 1
5 5 5 5 5 5 5 6 6 6 5 5 5 5 5 5 6 6 5 5 5 4 4 4 3 4 5 8 12 13 5 5 4 3 3 4 6 6 6 5 3 2 3
5 5 4 4 3 4 5 5 4 3 3 3 3 4 5 6 6 5 6 6 6 6 6 5 5 4 4 7 9 11 9 8 4 4 3 4 7 6 5 4 4 5 4
5 4 4 4 3 4 4 4 3 2 2 3 3 4 5 5 6 6 6 6 6 5 5 5 5 5 6 8 14 11 10 10 4 3 4 5 6 5 3 3 4 4 3
4 4 4 5 4 2 3 3 2 1 1 3 3 4 5 5 6 5 5 6 6 6 6 6 6 5 6 7 8 7 7 8 6 4 4 5 7 5 5 4 4 4 4
4 4 4 4 5 3 3 4 4 4 2 4 4 5 4 4 5 5 5 5 5 4 4 4 5 5 6 7 10 7 6 5 5 5 4 5 5 6 6 5 5 5 5
5 5 4 4 5 4 4 4 3 4 4 4 4 3 3 3 4 5 4 7 6 6 8 8 6 4 6 8 10 11 12 13 11 7 6 7 7 7 7 6 6 6 6
Wind_Direction
11 19 5 351 333 319 307 284 221 186 186 171 175 169 168 163 157 154 155 156 142 111 116 127 133 98 103 147 254 278 159 194 344 337 336 310 255 246 202 206 250 224 146
3 12 6 358 350 344 332 307 281 212 194 188 184 172 162 159 153 143 139 144 150 136 129 132 133 135 137 196 261 289 120 206 219 189 194 304 307 281 243 195 193 267 158
7 1 1 357 350 347 342 332 316 284 216 188 180 162 145 149 151 146 139 139 141 130 126 138 145 170 178 204 225 226 211 218 244 224 182 188 230 271 274 226 194 206 203
4 1 3 359 351 347 344 339 333 321 295 194 177 171 166 169 168 153 137 127 123 125 130 134 179 207 205 212 220 222 208 208 226 248 234 226 213 185 284 299 240 203 204
1 1 3 359 354 353 350 344 344 343 345 338 174 170 162 158 138 128 124 121 108 106 122 132 164 233 233 227 228 231 213 201 212 221 229 243 260 239 213 256 287 276 224
359 1 0 360 0 360 358 358 2 6 6 13 69 139 144 138 134 133 131 121 110 91 93 139 165 227 241 243 242 231 224 210 215 220 222 217 219 227 223 223 241 255 256
359 1 2 357 359 3 3 9 13 16 19 30 47 79 109 123 131 133 129 123 116 116 127 169 207 221 228 241 245 241 232 218 218 219 219 221 224 228 224 224 240 249 263
360 4 4 1 360 5 6 18 25 27 29 43 56 69 80 81 85 94 107 108 110 127 150 202 240 234 228 239 228 243 253 238 226 217 211 207 227 224 210 205 214 243 259
360 3 3 5 7 9 13 21 31 37 41 53 64 69 77 82 82 83 88 96 116 135 161 223 229 225 211 224 225 210 246 240 243 201 252 214 219 220 222 217 200 197 227
359 2 5 9 15 18 19 26 36 42 48 54 62 72 76 83 86 84 84 79 70 15 266 268 244 216 199 204 201 220 243 261 215 147 261 268 239 226 215 216 218 202 205
2 8 12 16 20 23 25 25 28 35 37 44 54 59 62 63 67 63 59 64 248 248 248 252 251 218 197 193 167 200 188 237 245 204 208 218 222 211 221 223 222 218 201
8 16 20 22 25 25 23 25 24 30 31 34 44 50 49 43 27 351 315 284 273 266 263 252 246 199 154 163 155 181 181 221 246 240 212 217 210 205 217 213 222 223 214
10 17 20 21 23 23 23 25 23 23 27 33 37 37 37 24 349 315 296 277 269 277 274 262 264 114 130 146 144 180 211 222 224 230 224 224 185 194 195 204 222 229 236
8 16 18 17 22 26 24 24 20 21 25 29 36 38 25 1 330 321 318 318 321 317 320 331 8 57 62 32 5 341 291 279 257 231 225 215 119 85 54 51 67 229 257
15 17 18 18 23 29 33 31 28 30 30 31 33 29 28 25 22 16 11 11 9 4 10 14 24 35 43 31 14 354 340 324 314 303 273 132 117 113 106 82 29 14 341
14 18 26 26 28 33 39 38 38 38 41 42 40 35 35 30 28 27 25 25 23 17 21 23 34 45 36 23 21 6 342 330 329 323 332 145 165 164 174 184 196 207 316
13 10 22 25 29 38 51 50 43 41 42 44 39 36 38 37 33 31 29 33 37 34 34 34 43 54 33 19 12 2 332 307 306 309 313 312 113 150 195 204 210 221 222
11 4 17 27 27 29 52 67 54 44 39 40 43 39 35 35 34 35 35 34 39 43 42 36 41 49 35 19 9 353 320 298 300 304 321 335 25 46 26 21 205 198 183
8 360 10 25 26 27 37 57 62 52 42 37 41 41 36 31 29 31 35 32 32 40 49 38 35 38 30 18 10 360 330 331 329 340 20 34 55 40 28 4 351 61 113
7 358 11 20 17 21 34 48 57 51 42 34 36 42 40 35 28 23 24 26 30 32 54 56 46 39 29 21 16 8 357 354 349 1 49 58 58 37 23 7 11 29 18
16 3 7 13 7 15 42 48 48 52 47 36 34 35 34 47 41 22 17 20 22 22 30 47 53 56 42 22 18 15 13 352 351 12 32 42 38 37 25 17 28 29 346
19 7 357 350 355 29 39 60 50 51 65 51 42 52 48 38 39 35 26 23 18 24 25 24 26 29 41 28 9 9 10 2 5 18 24 24 18 22 21 30 36 17 1
15 355 338 343 11 41 41 54 59 35 73 66 43 64 75 63 40 36 35 28 25 26 23 17 18 19 24 14 6 3 7 10 15 21 21 18 20 12 26 47 25 15 30
0 347 358 8 355 20 51 56 35 344 106 97 67 71 69 70 59 37 40 42 25 20 17 16 15 15 25 15 2 355 3 6 11 13 24 31 41 43 45 46 38 43 47
356 8 17 345 330 18 60 61 20 342 38 89 85 85 83 88 85 67 43 45 53 35 19 7 13 18 18 4 0 8 8 2 7 11 29 37 35 37 37 40 39 36 37
5 7 4 342 348 20 49 71 30 350 33 70 67 68 91 96 120 121 93 51 60 55 54 44 40 59 30 6 11 16 21 24 28 42 43 40 37 37 36 38 37 35 33